| time (UTC) | temp F | wind direction | speed MPH | gust MPH | rain 1hr in | rain 24hr in | rain mn in | humidity % | barometer mb |
| 20260502170208 | 57 | 216 | 1.0 | 1.0 | 0.00 | 0.00 | 0.00 | 50 | 1026.6 |
| 20260502164155 | 55 | 351 | 3.0 | 3.0 | 0.00 | 0.00 | 0.00 | 56 | 1026.6 |
| 20260502163650 | 55 | 334 | 2.0 | 2.0 | 0.00 | 0.00 | 0.00 | 55 | 1026.9 |
| 20260502163147 | 55 | 324 | 2.0 | 2.0 | 0.00 | 0.00 | 0.00 | 58 | 1027.0 |
| 20260502162644 | 54 | 330 | 0.0 | 1.0 | 0.00 | 0.00 | 0.00 | 58 | 1026.9 |
| 20260502162141 | 54 | 265 | 0.0 | 1.0 | 0.00 | 0.00 | 0.00 | 56 | 1027.0 |
| 20260502161638 | 53 | 332 | 2.0 | 2.0 | 0.00 | 0.00 | 0.00 | 61 | 1027.2 |
| 20260502161135 | 53 | 344 | 3.0 | 3.0 | 0.00 | 0.00 | 0.00 | 60 | 1027.4 |
| 20260502160633 | 52 | 335 | 4.0 | 6.0 | 0.00 | 0.00 | 0.00 | 66 | 1027.2 |
| 20260502160131 | 53 | 7 | 4.0 | 6.0 | 0.00 | 0.00 | 0.00 | 65 | 1027.5 |
| 20260502152045 | 50 | 301 | 0.0 | 0.0 | 0.00 | 0.00 | 0.00 | 70 | 1027.8 |
| 20260502151543 | 50 | 232 | 0.0 | 0.0 | 0.00 | 0.00 | 0.00 | 64 | 1027.4 |
| 20260502151040 | 49 | 193 | 1.0 | 1.0 | 0.00 | 0.00 | 0.00 | 67 | 1027.8 |
| 20260502150538 | 48 | 184 | 0.0 | 0.0 | 0.00 | 0.00 | 0.00 | 67 | 1027.6 |
| 20260502130422 | 33 | 213 | 0.0 | 0.0 | 0.00 | 0.00 | 0.00 | 95 | 1027.8 |
| 20260502123405 | 33 | 212 | 0.0 | 0.0 | 0.00 | 0.00 | 0.00 | 95 | 1027.4 |
| 20260502122902 | 33 | 214 | 0.0 | 0.0 | 0.00 | 0.00 | 0.00 | 95 | 1027.5 |
| 20260502122358 | 33 | 214 | 0.0 | 0.0 | 0.00 | 0.00 | 0.00 | 94 | 1027.4 |
| 20260502121856 | 33 | 211 | 0.0 | 0.0 | 0.00 | 0.00 | 0.00 | 95 | 1027.4 |
| 20260502121353 | 33 | 211 | 0.0 | 1.0 | 0.00 | 0.00 | 0.00 | 94 | 1027.5 |
| 20260502120851 | 33 | 228 | 0.0 | 0.0 | 0.00 | 0.00 | 0.00 | 94 | 1027.5 |
| 20260502120347 | 33 | 235 | 0.0 | 0.0 | 0.00 | 0.00 | 0.00 | 94 | 1027.6 |
| 20260502115844 | 32 | 245 | 0.0 | 0.0 | 0.00 | 0.00 | 0.00 | 94 | 1027.4 |
| 20260502115341 | 32 | 245 | 0.0 | 0.0 | 0.00 | 0.00 | 0.00 | 94 | 1027.6 |
| 20260502114837 | 32 | 245 | 0.0 | 0.0 | 0.00 | 0.00 | 0.00 | 94 | 1027.4 |
| 20260502114335 | 32 | 245 | 0.0 | 0.0 | 0.00 | 0.00 | 0.00 | 94 | 1027.5 |
| 20260502113832 | 32 | 246 | 0.0 | 0.0 | 0.00 | 0.00 | 0.00 | 94 | 1027.8 |
| 20260502113329 | 33 | 246 | 0.0 | 0.0 | 0.00 | 0.00 | 0.00 | 94 | 1027.6 |
| 20260502112827 | 34 | 239 | 0.0 | 0.0 | 0.00 | 0.00 | 0.00 | 94 | 1027.3 |
| 20260502112324 | 34 | 240 | 0.0 | 0.0 | 0.00 | 0.00 | 0.00 | 94 | 1027.5 |
| 20260502111822 | 35 | 216 | 0.0 | 0.0 | 0.00 | 0.00 | 0.00 | 94 | 1027.5 |
| 20260502111319 | 35 | 216 | 0.0 | 0.0 | 0.00 | 0.00 | 0.00 | 94 | 1027.4 |
| 20260502110817 | 33 | 224 | 0.0 | 0.0 | 0.00 | 0.00 | 0.00 | 94 | 1027.4 |
| 20260502110314 | 33 | 224 | 0.0 | 0.0 | 0.00 | 0.00 | 0.00 | 94 | 1027.2 |
| 20260502105812 | 33 | 224 | 0.0 | 0.0 | 0.00 | 0.00 | 0.00 | 94 | 1027.5 |
| 20260502105308 | 32 | 223 | 0.0 | 0.0 | 0.00 | 0.00 | 0.00 | 94 | 1027.3 |
| 20260502104806 | 33 | 223 | 0.0 | 0.0 | 0.00 | 0.00 | 0.00 | 93 | 1027.1 |
| 20260502104303 | 34 | 184 | 1.0 | 1.0 | 0.00 | 0.00 | 0.00 | 94 | 1027.1 |
| 20260502103801 | 33 | 239 | 0.0 | 0.0 | 0.00 | 0.00 | 0.00 | 94 | 1027.2 |
| 20260502103258 | 33 | 239 | 0.0 | 0.0 | 0.00 | 0.00 | 0.00 | 93 | 1027.2 |
| 20260502102755 | 35 | 226 | 0.0 | 0.0 | 0.00 | 0.00 | 0.00 | 93 | 1027.2 |
| 20260502102251 | 35 | 229 | 0.0 | 0.0 | 0.00 | 0.00 | 0.00 | 93 | 1027.0 |
| 20260502101749 | 36 | 238 | 0.0 | 0.0 | 0.00 | 0.00 | 0.00 | 93 | 1027.0 |
| 20260502101247 | 35 | 217 | 0.0 | 0.0 | 0.00 | 0.00 | 0.00 | 93 | 1026.9 |
| 20260502100745 | 36 | 218 | 0.0 | 0.0 | 0.00 | 0.00 | 0.00 | 93 | 1026.9 |
| 20260502100244 | 34 | 232 | 0.0 | 0.0 | 0.00 | 0.00 | 0.00 | 93 | 1026.8 |
| 20260502091218 | 36 | 235 | 0.0 | 0.0 | 0.00 | 0.00 | 0.00 | 92 | 1026.9 |
| 20260502090715 | 36 | 248 | 0.0 | 0.0 | 0.00 | 0.00 | 0.00 | 91 | 1026.8 |
| 20260502090212 | 36 | 248 | 0.0 | 0.0 | 0.00 | 0.00 | 0.00 | 91 | 1026.5 |
| 20260502071113 | 39 | 259 | 0.0 | 0.0 | 0.00 | 0.00 | 0.00 | 88 | 1026.4 |
| 20260502070611 | 40 | 252 | 0.0 | 0.0 | 0.00 | 0.00 | 0.00 | 87 | 1026.2 |
| 20260502070109 | 40 | 242 | 0.0 | 0.0 | 0.00 | 0.00 | 0.00 | 87 | 1026.1 |
| 20260502065607 | 41 | 234 | 0.0 | 0.0 | 0.00 | 0.00 | 0.00 | 86 | 1025.8 |
| 20260502065104 | 41 | 234 | 0.0 | 0.0 | 0.00 | 0.00 | 0.00 | 86 | 1026.0 |
| 20260502064603 | 41 | 234 | 0.0 | 0.0 | 0.00 | 0.00 | 0.00 | 85 | 1026.1 |
| 20260502064059 | 41 | 235 | 0.0 | 0.0 | 0.00 | 0.00 | 0.00 | 85 | 1026.0 |
| 20260502063557 | 41 | 234 | 0.0 | 0.0 | 0.00 | 0.00 | 0.00 | 84 | 1026.0 |
| 20260502063055 | 41 | 209 | 0.0 | 0.0 | 0.00 | 0.00 | 0.00 | 83 | 1025.7 |
| 20260502062551 | 42 | 227 | 0.0 | 0.0 | 0.00 | 0.00 | 0.00 | 83 | 1025.8 |
| 20260502062049 | 42 | 202 | 0.0 | 1.0 | 0.00 | 0.00 | 0.00 | 83 | 1025.8 |
| 20260502061547 | 42 | 230 | 0.0 | 0.0 | 0.00 | 0.00 | 0.00 | 81 | 1025.7 |
| 20260502061044 | 43 | 192 | 0.0 | 0.0 | 0.00 | 0.00 | 0.00 | 81 | 1025.4 |
| 20260502060539 | 42 | 205 | 0.0 | 0.0 | 0.00 | 0.00 | 0.00 | 81 | 1025.7 |
| 20260502060037 | 42 | 246 | 0.0 | 0.0 | 0.00 | 0.00 | 0.00 | 81 | 1025.4 |
| 20260502055534 | 43 | 266 | 0.0 | 0.0 | 0.00 | 0.00 | 0.00 | 80 | 1025.8 |
| 20260502055032 | 43 | 214 | 0.0 | 0.0 | 0.00 | 0.00 | 0.00 | 79 | 1025.3 |
| 20260502054531 | 43 | 71 | 1.0 | 1.0 | 0.00 | 0.00 | 0.00 | 79 | 1025.5 |
| 20260502054027 | 44 | 247 | 1.0 | 2.0 | 0.00 | 0.00 | 0.00 | 78 | 1025.4 |
| 20260502053524 | 45 | 219 | 0.0 | 0.0 | 0.00 | 0.00 | 0.00 | 78 | 1025.2 |
| 20260502053022 | 46 | 207 | 0.0 | 0.0 | 0.00 | 0.00 | 0.00 | 74 | 1025.2 |
| 20260502052520 | 46 | 177 | 0.0 | 1.0 | 0.00 | 0.00 | 0.00 | 74 | 1025.3 |
| 20260502052018 | 46 | 207 | 0.0 | 0.0 | 0.00 | 0.00 | 0.00 | 71 | 1025.2 |
| 20260502051516 | 45 | 242 | 0.0 | 0.0 | 0.00 | 0.00 | 0.00 | 72 | 1025.1 |
| 20260502051013 | 46 | 220 | 0.0 | 0.0 | 0.00 | 0.00 | 0.00 | 71 | 1025.1 |
| 20260502050509 | 46 | 199 | 0.0 | 0.0 | 0.00 | 0.00 | 0.00 | 69 | 1025.1 |
| 20260502050007 | 46 | 190 | 1.0 | 1.0 | 0.00 | 0.00 | 0.00 | 71 | 1024.9 |
| 20260502045503 | 46 | 239 | 0.0 | 0.0 | 0.00 | 0.00 | 0.00 | 69 | 1024.9 |
| 20260502045001 | 48 | 246 | 0.0 | 1.0 | 0.00 | 0.00 | 0.00 | 70 | 1025.0 |
| 20260502044456 | 48 | 65 | 1.0 | 1.0 | 0.00 | 0.00 | 0.00 | 70 | 1025.0 |
| 20260502043953 | 46 | 323 | 0.0 | 0.0 | 0.00 | 0.00 | 0.00 | 72 | 1025.0 |
| 20260502043451 | 48 | 322 | 1.0 | 1.0 | 0.00 | 0.00 | 0.00 | 73 | 1024.8 |
| 20260502042950 | 49 | 346 | 2.0 | 2.0 | 0.00 | 0.00 | 0.00 | 66 | 1024.8 |
| 20260502042447 | 49 | 251 | 0.0 | 0.0 | 0.00 | 0.00 | 0.00 | 62 | 1024.7 |
| 20260502041945 | 49 | 272 | 0.0 | 0.0 | 0.00 | 0.00 | 0.00 | 65 | 1024.7 |
| 20260502041442 | 49 | 244 | 0.0 | 0.0 | 0.00 | 0.00 | 0.00 | 65 | 1024.7 |
| 20260502040939 | 49 | 166 | 1.0 | 1.0 | 0.00 | 0.00 | 0.00 | 62 | 1024.5 |
| 20260502040436 | 50 | 234 | 1.0 | 2.0 | 0.00 | 0.00 | 0.00 | 65 | 1024.5 |
| 20260502035932 | 50 | 133 | 2.0 | 2.0 | 0.00 | 0.00 | 0.00 | 63 | 1024.4 |
| 20260502035428 | 50 | 229 | 0.0 | 0.0 | 0.00 | 0.00 | 0.00 | 62 | 1024.5 |
| 20260502034926 | 50 | 196 | 0.0 | 1.0 | 0.00 | 0.00 | 0.00 | 61 | 1024.5 |
| 20260502034425 | 52 | 228 | 0.0 | 0.0 | 0.00 | 0.00 | 0.00 | 62 | 1024.1 |
| 20260502033923 | 53 | 317 | 1.0 | 2.0 | 0.00 | 0.00 | 0.00 | 58 | 1024.3 |
| 20260502033420 | 52 | 300 | 2.0 | 3.0 | 0.00 | 0.00 | 0.00 | 55 | 1024.3 |
| 20260502032916 | 52 | 221 | 0.0 | 0.0 | 0.00 | 0.00 | 0.00 | 59 | 1024.1 |
| 20260502032413 | 52 | 188 | 0.0 | 0.0 | 0.00 | 0.00 | 0.00 | 59 | 1024.3 |
| 20260502031910 | 57 | 163 | 0.0 | 0.0 | 0.00 | 0.00 | 0.00 | 51 | 1024.2 |
| 20260502031409 | 55 | 146 | 3.0 | 3.0 | 0.00 | 0.00 | 0.00 | 51 | 1024.0 |
| 20260502030907 | 53 | 212 | 0.0 | 0.0 | 0.00 | 0.00 | 0.00 | 59 | 1024.2 |
| 20260502030404 | 53 | 280 | 0.0 | 0.0 | 0.00 | 0.00 | 0.00 | 60 | 1024.1 |
| 20260502025902 | 54 | 118 | 2.0 | 2.0 | 0.00 | 0.00 | 0.00 | 56 | 1023.9 |
| 20260502025359 | 56 | 259 | 0.0 | 0.0 | 0.00 | 0.00 | 0.00 | 60 | 1023.7 |
| 20260502024857 | 56 | 190 | 0.0 | 0.0 | 0.00 | 0.00 | 0.00 | 54 | 1023.6 |
| 20260502024354 | 56 | 175 | 1.0 | 2.0 | 0.00 | 0.00 | 0.00 | 60 | 1023.7 |
| 20260502023852 | 60 | 233 | 0.0 | 0.0 | 0.00 | 0.00 | 0.00 | 54 | 1023.6 |
| 20260502023350 | 60 | 198 | 0.0 | 0.0 | 0.00 | 0.00 | 0.00 | 47 | 1023.3 |
| 20260502022847 | 60 | 253 | 0.0 | 0.0 | 0.00 | 0.00 | 0.00 | 44 | 1023.4 |
| 20260502022343 | 62 | 317 | 1.0 | 2.0 | 0.00 | 0.00 | 0.00 | 42 | 1023.3 |
| 20260502021840 | 62 | 266 | 0.0 | 0.0 | 0.00 | 0.00 | 0.00 | 39 | 1023.3 |
| 20260502021338 | 62 | 249 | 0.0 | 0.0 | 0.00 | 0.00 | 0.00 | 42 | 1023.3 |
| 20260502020835 | 64 | 252 | 0.0 | 0.0 | 0.00 | 0.00 | 0.00 | 42 | 1023.3 |
| 20260502020332 | 67 | 265 | 0.0 | 0.0 | 0.00 | 0.00 | 0.00 | 36 | 1023.1 |
| 20260502015829 | 68 | 194 | 1.0 | 1.0 | 0.00 | 0.00 | 0.00 | 35 | 1023.3 |
| 20260502015326 | 68 | 216 | 1.0 | 1.0 | 0.00 | 0.00 | 0.00 | 32 | 1023.2 |
| 20260502014824 | 69 | 193 | 3.0 | 3.0 | 0.00 | 0.00 | 0.00 | 30 | 1023.3 |
| 20260502014321 | 70 | 187 | 4.0 | 5.0 | 0.00 | 0.00 | 0.00 | 29 | 1023.3 |
| 20260502013816 | 70 | 157 | 4.0 | 5.0 | 0.00 | 0.00 | 0.00 | 30 | 1023.2 |
| 20260502013313 | 71 | 177 | 5.0 | 5.0 | 0.00 | 0.00 | 0.00 | 27 | 1023.4 |
| 20260502012809 | 71 | 178 | 5.0 | 6.0 | 0.00 | 0.00 | 0.00 | 28 | 1023.3 |
| 20260502012307 | 71 | 193 | 6.0 | 7.0 | 0.00 | 0.00 | 0.00 | 27 | 1023.6 |
| 20260502011804 | 72 | 184 | 5.0 | 7.0 | 0.00 | 0.00 | 0.00 | 27 | 1023.3 |
| 20260502011300 | 72 | 161 | 7.0 | 7.0 | 0.00 | 0.00 | 0.00 | 26 | 1023.7 |
| 20260502010757 | 72 | 157 | 6.0 | 7.0 | 0.00 | 0.00 | 0.00 | 25 | 1023.4 |
| 20260502010253 | 72 | 181 | 7.0 | 8.0 | 0.00 | 0.00 | 0.00 | 26 | 1023.4 |
| 20260502005751 | 72 | 183 | 6.0 | 7.0 | 0.00 | 0.00 | 0.00 | 27 | 1023.4 |
| 20260502005248 | 72 | 180 | 4.0 | 6.0 | 0.00 | 0.00 | 0.00 | 24 | 1023.4 |
| 20260502004745 | 73 | 180 | 8.0 | 9.0 | 0.00 | 0.00 | 0.00 | 25 | 1023.3 |
| 20260502004242 | 73 | 204 | 7.0 | 8.0 | 0.00 | 0.00 | 0.00 | 28 | 1023.7 |
| 20260502003739 | 73 | 183 | 4.0 | 5.0 | 0.00 | 0.00 | 0.00 | 26 | 1023.4 |
| 20260502003237 | 73 | 183 | 4.0 | 5.0 | 0.00 | 0.00 | 0.00 | 27 | 1023.4 |
| 20260502002732 | 73 | 184 | 4.0 | 6.0 | 0.00 | 0.00 | 0.00 | 23 | 1023.7 |
| 20260502002230 | 73 | 186 | 5.0 | 7.0 | 0.00 | 0.00 | 0.00 | 25 | 1023.8 |
| 20260502001727 | 73 | 134 | 11.0 | 14.0 | 0.00 | 0.00 | 0.00 | 24 | 1023.9 |
| 20260502001225 | 73 | 144 | 7.0 | 8.0 | 0.00 | 0.00 | 0.00 | 26 | 1023.9 |
| 20260502000722 | 73 | 169 | 9.0 | 10.0 | 0.00 | 0.00 | 0.00 | 25 | 1023.6 |
| 20260502000220 | 73 | 196 | 8.0 | 9.0 | 0.00 | 0.00 | 0.00 | 28 | 1023.9 |
| 20260501235715 | 73 | 183 | 8.0 | 10.0 | 0.00 | 0.00 | 0.00 | 24 | 1023.8 |
| 20260501235212 | 73 | 151 | 4.0 | 7.0 | 0.00 | 0.00 | 0.00 | 25 | 1024.0 |
| 20260501234708 | 74 | 177 | 5.0 | 7.0 | 0.00 | 0.00 | 0.00 | 28 | 1023.9 |
| 20260501234205 | 73 | 189 | 8.0 | 9.0 | 0.00 | 0.00 | 0.00 | 28 | 1024.0 |
| 20260501233703 | 73 | 209 | 5.0 | 8.0 | 0.00 | 0.00 | 0.00 | 26 | 1023.9 |
| 20260501233200 | 73 | 170 | 6.0 | 7.0 | 0.00 | 0.00 | 0.00 | 25 | 1023.9 |
| 20260501232655 | 74 | 185 | 8.0 | 9.0 | 0.00 | 0.00 | 0.00 | 27 | 1024.1 |
| 20260501232153 | 73 | 185 | 7.0 | 8.0 | 0.00 | 0.00 | 0.00 | 26 | 1023.9 |
| 20260501231651 | 73 | 186 | 2.0 | 3.0 | 0.00 | 0.00 | 0.00 | 25 | 1024.1 |
| 20260501231149 | 73 | 166 | 3.0 | 5.0 | 0.00 | 0.00 | 0.00 | 27 | 1024.1 |
| 20260501230647 | 73 | 165 | 10.0 | 10.0 | 0.00 | 0.00 | 0.00 | 26 | 1024.2 |
| 20260501230145 | 73 | 221 | 2.0 | 3.0 | 0.00 | 0.00 | 0.00 | 28 | 1024.1 |
| 20260501225642 | 73 | 234 | 0.0 | 0.0 | 0.00 | 0.00 | 0.00 | 25 | 1024.5 |
| 20260501225138 | 73 | 185 | 5.0 | 7.0 | 0.00 | 0.00 | 0.00 | 27 | 1024.3 |
| 20260501224635 | 73 | 139 | 8.0 | 9.0 | 0.00 | 0.00 | 0.00 | 28 | 1024.4 |
| 20260501224133 | 73 | 167 | 5.0 | 6.0 | 0.00 | 0.00 | 0.00 | 31 | 1024.5 |
| 20260501223629 | 73 | 199 | 5.0 | 7.0 | 0.00 | 0.00 | 0.00 | 29 | 1024.7 |
| 20260501223126 | 73 | 172 | 6.0 | 7.0 | 0.00 | 0.00 | 0.00 | 29 | 1024.5 |
| 20260501222621 | 74 | 158 | 4.0 | 5.0 | 0.00 | 0.00 | 0.00 | 28 | 1024.7 |
| 20260501222119 | 73 | 193 | 4.0 | 5.0 | 0.00 | 0.00 | 0.00 | 26 | 1024.8 |
| 20260501221615 | 73 | 143 | 7.0 | 7.0 | 0.00 | 0.00 | 0.00 | 27 | 1024.8 |
| 20260501221113 | 74 | 193 | 5.0 | 5.0 | 0.00 | 0.00 | 0.00 | 32 | 1024.9 |
| 20260501220611 | 73 | 211 | 7.0 | 8.0 | 0.00 | 0.00 | 0.00 | 28 | 1024.7 |
| 20260501220107 | 73 | 184 | 2.0 | 2.0 | 0.00 | 0.00 | 0.00 | 31 | 1025.0 |
| 20260501215604 | 72 | 201 | 2.0 | 3.0 | 0.00 | 0.00 | 0.00 | 31 | 1025.1 |
| 20260501215059 | 72 | 168 | 6.0 | 6.0 | 0.00 | 0.00 | 0.00 | 30 | 1025.3 |
| 20260501214554 | 72 | 225 | 3.0 | 3.0 | 0.00 | 0.00 | 0.00 | 31 | 1025.3 |
| 20260501214050 | 72 | 231 | 7.0 | 8.0 | 0.00 | 0.00 | 0.00 | 30 | 1025.4 |
| 20260501213547 | 72 | 166 | 7.0 | 8.0 | 0.00 | 0.00 | 0.00 | 30 | 1025.3 |
| 20260501213043 | 71 | 152 | 3.0 | 6.0 | 0.00 | 0.00 | 0.00 | 32 | 1025.8 |
| 20260501212540 | 71 | 93 | 2.0 | 2.0 | 0.00 | 0.00 | 0.00 | 30 | 1025.8 |
| 20260501212037 | 71 | 168 | 2.0 | 2.0 | 0.00 | 0.00 | 0.00 | 28 | 1025.7 |
| 20260501211533 | 71 | 130 | 1.0 | 2.0 | 0.00 | 0.00 | 0.00 | 29 | 1025.5 |
| 20260501211032 | 70 | 150 | 5.0 | 6.0 | 0.00 | 0.00 | 0.00 | 30 | 1025.8 |
| 20260501210527 | 70 | 186 | 5.0 | 6.0 | 0.00 | 0.00 | 0.00 | 28 | 1026.0 |
| 20260501210025 | 71 | 166 | 9.0 | 10.0 | 0.00 | 0.00 | 0.00 | 31 | 1025.9 |
| 20260501205521 | 70 | 210 | 3.0 | 5.0 | 0.00 | 0.00 | 0.00 | 32 | 1026.1 |
| 20260501205019 | 70 | 144 | 4.0 | 6.0 | 0.00 | 0.00 | 0.00 | 29 | 1026.0 |
| 20260501204515 | 69 | 244 | 4.0 | 6.0 | 0.00 | 0.00 | 0.00 | 33 | 1026.2 |
| 20260501204011 | 71 | 154 | 4.0 | 7.0 | 0.00 | 0.00 | 0.00 | 28 | 1026.2 |
| 20260501203508 | 71 | 206 | 1.0 | 1.0 | 0.00 | 0.00 | 0.00 | 29 | 1026.3 |
| 20260501203006 | 70 | 277 | 0.0 | 1.0 | 0.00 | 0.00 | 0.00 | 32 | 1026.2 |
| 20260501202502 | 71 | 76 | 1.0 | 1.0 | 0.00 | 0.00 | 0.00 | 33 | 1026.4 |
| 20260501201958 | 70 | 86 | 1.0 | 1.0 | 0.00 | 0.00 | 0.00 | 30 | 1026.8 |
| 20260501201456 | 69 | 27 | 2.0 | 2.0 | 0.00 | 0.00 | 0.00 | 31 | 1026.5 |
| 20260501200952 | 69 | 246 | 3.0 | 3.0 | 0.00 | 0.00 | 0.00 | 38 | 1026.6 |
| 20260501200450 | 68 | 260 | 3.0 | 3.0 | 0.00 | 0.00 | 0.00 | 31 | 1026.8 |
| 20260501195947 | 68 | 176 | 1.0 | 1.0 | 0.00 | 0.00 | 0.00 | 31 | 1026.8 |
| 20260501195444 | 69 | 222 | 0.0 | 0.0 | 0.00 | 0.00 | 0.00 | 37 | 1027.0 |
| 20260501194939 | 67 | 243 | 0.0 | 0.0 | 0.00 | 0.00 | 0.00 | 33 | 1027.1 |
| 20260501194435 | 67 | 297 | 2.0 | 2.0 | 0.00 | 0.00 | 0.00 | 31 | 1027.0 |
| 20260501193931 | 68 | 193 | 5.0 | 6.0 | 0.00 | 0.00 | 0.00 | 32 | 1027.2 |
| 20260501193430 | 66 | 234 | 1.0 | 1.0 | 0.00 | 0.00 | 0.00 | 35 | 1027.2 |
| 20260501192927 | 67 | 207 | 2.0 | 2.0 | 0.00 | 0.00 | 0.00 | 34 | 1027.2 |
| 20260501192424 | 66 | 201 | 3.0 | 6.0 | 0.00 | 0.00 | 0.00 | 38 | 1027.4 |
| 20260501191922 | 66 | 199 | 5.0 | 7.0 | 0.00 | 0.00 | 0.00 | 37 | 1027.2 |
| 20260501191419 | 66 | 184 | 2.0 | 2.0 | 0.00 | 0.00 | 0.00 | 40 | 1027.8 |
| 20260501190915 | 65 | 241 | 0.0 | 1.0 | 0.00 | 0.00 | 0.00 | 40 | 1027.4 |
| 20260501190412 | 65 | 173 | 3.0 | 3.0 | 0.00 | 0.00 | 0.00 | 38 | 1027.5 |
| 20260501185911 | 65 | 165 | 3.0 | 3.0 | 0.00 | 0.00 | 0.00 | 38 | 1027.6 |
| 20260501185408 | 63 | 221 | 3.0 | 3.0 | 0.00 | 0.00 | 0.00 | 38 | 1027.6 |
| 20260501184904 | 63 | 267 | 1.0 | 2.0 | 0.00 | 0.00 | 0.00 | 39 | 1027.9 |
| 20260501184400 | 63 | 211 | 2.0 | 3.0 | 0.00 | 0.00 | 0.00 | 44 | 1027.9 |
| 20260501183855 | 63 | 227 | 1.0 | 1.0 | 0.00 | 0.00 | 0.00 | 39 | 1028.0 |
| 20260501183353 | 63 | 230 | 1.0 | 1.0 | 0.00 | 0.00 | 0.00 | 39 | 1027.9 |
| 20260501182849 | 64 | 196 | 3.0 | 3.0 | 0.00 | 0.00 | 0.00 | 40 | 1028.1 |
| 20260501182346 | 62 | 166 | 2.0 | 2.0 | 0.00 | 0.00 | 0.00 | 44 | 1028.1 |
| 20260501181843 | 61 | 193 | 4.0 | 6.0 | 0.00 | 0.00 | 0.00 | 40 | 1028.2 |
| 20260501181340 | 61 | 249 | 0.0 | 1.0 | 0.00 | 0.00 | 0.00 | 40 | 1028.4 |
| 20260501180838 | 61 | 216 | 2.0 | 2.0 | 0.00 | 0.00 | 0.00 | 41 | 1028.4 |
| 20260501180333 | 61 | 194 | 0.0 | 1.0 | 0.00 | 0.00 | 0.00 | 45 | 1028.4 |
| 20260501175831 | 60 | 180 | 3.0 | 3.0 | 0.00 | 0.00 | 0.00 | 44 | 1028.7 |
| 20260501175327 | 61 | 198 | 2.0 | 2.0 | 0.00 | 0.00 | 0.00 | 41 | 1028.6 |
| 20260501174824 | 59 | 235 | 1.0 | 1.0 | 0.00 | 0.00 | 0.00 | 41 | 1029.1 |
| 20260501174321 | 59 | 163 | 2.0 | 2.0 | 0.00 | 0.00 | 0.00 | 44 | 1028.9 |
| 20260501173820 | 59 | 197 | 4.0 | 5.0 | 0.00 | 0.00 | 0.00 | 44 | 1029.0 |
| 20260501173317 | 58 | 260 | 1.0 | 1.0 | 0.00 | 0.00 | 0.00 | 45 | 1029.1 |
| 20260501172812 | 58 | 206 | 2.0 | 2.0 | 0.00 | 0.00 | 0.00 | 45 | 1029.1 |
| 20260501172307 | 58 | 205 | 3.0 | 3.0 | 0.00 | 0.00 | 0.00 | 48 | 1029.1 |
| 20260501171803 | 57 | 209 | 1.0 | 2.0 | 0.00 | 0.00 | 0.00 | 49 | 1029.1 |
| 20260501171300 | 56 | 235 | 0.0 | 0.0 | 0.00 | 0.00 | 0.00 | 48 | 1029.3 |